Showing default

KANOPUS-V-IK, 42825

Orbit data source: Space-Track

KANOPUS-V-IK, 42825 is a payload satellite owned by VNIIEM (CIS) in SSO that was launched on Fri, 14 Jul 2017 UTC via a SOYUZ-2-1A launch vehicle from the Tyuratam Missile And Space Complex (TTMTR). Payload-class satellites include a variety of spacecraft equipped with specific instruments for various scientific and technological missions. These include communications satellites like Starlink; space stations such as the ISS; scientific satellites like the Hubble; Earth observation satellites from companies like Planet Labs, Umbra, and HawkEye 360; GPS; miniature CubeSats for education and research; and military/defense satellites.

Loading next visibility...
Identifier
42825, 2017-042A
Orbit
SSO
Country
Flag of CISCIS
Related business
Manufacturer
VNIIEM
Mission
Operational Civil Imaging
Bus & Motor
KANOPUS, Unknown motor
Mass
550 kg wet, 550 kg dry
Launch date (UTC)
2017-07-14 (8 years ago)
Launch vehicle
SOYUZ-2-1A
Launch site
Tyuratam Missile And Space Complex (TTMTR)
Object type
Payload
Rocket body
Debris
Shape & HBR
Box + 2 Pan, 3.0 m
Radar Cross Section
1.665 m², Large (>1 m²)

Expand to show TLE details & history
Last TLE update: 7 hours ago

TLE from 7 hours ago
0 KANOPUS-V-IK
1 42825U 17042A   25258.60898694  .00003058  00000-0  13354-3 0  9992
2 42825  97.3678 164.3711 0001837  86.2195 273.9252 15.22873539453575
Epoch: 2025-09-15T14:36Z
TLE epoch observation values (Epoch: 2025-09-15T14:36:56.471Z)
Latitude
-0.00001°
Longitude
-49.67538°
Altitude
500.187 km
Speed
7.614 km/s
True Right ascension
10h 57m 29s
True Declination
0° 00' 00"
Sunlit
Object was in daylight at epoch
Visualization orbit readout
Latitude
Unknown
Longitude
Unknown
Altitude
Unknown
Speed
Unknown
Apparent Right ascension
Unknown
Apparent Declination
Unknown
Sunlit
N/A
Visualization observer readout
Local Sidereal Time
14:13:18
Azimuth
Unknown
Elevation
Unknown
Doppler factor
Unknown
Orbital elements
Apogee altitude
495.401 km
Perigee altitude
492.876 km
Semi-major axis
6,872.276 km
Eccentricity
0.00018
Inclination
97.3678°
RAAN
164.3711°
Arg. of periapsis
86.2195°
True anomaly
273.9042°
Mean anomaly
273.9252°
Eccentric anomaly
273.9147°
Mean motion
3.80971 °/min
Orbital period
94.5 mins
BSTAR
0.00013354
Loading maneuver chart data...
Computing Atmospheric mass density...

Documentation

Showing up to 5 results
|